Regional Weather Roundup
Issued by NWS

Home | Current Version | Previous Version | Text Only | Print | Product List | Glossary Off
Versions: 1 2 3 4 5 6 7 8 9 10 11 12 13 14 15 16 17 18 19 20 21 22 23 24 25 26 27 28 29 30 31 32 33 34 35 36 37 38 39 40 41 42 43 44 45 46 47 48 49 50

000
ASUS43 KMKX 230459
RWRWI

WISCONSIN REGIONAL WEATHER ROUNDUP
NATIONAL WEATHER SERVICE MILWAUKEE/SULLIVAN WI
1100 PM CST MON JAN 22 2018

NOTE: "FAIR" INDICATES FEW OR NO CLOUDS BELOW 12,000 FEET WITH NO
SIGNIFICANT WEATHER AND/OR OBSTRUCTIONS TO VISIBILITY.

WIZ001-002-006>008-014>016-023>028-230600-
NORTHWEST WISCONSIN

CITY           SKY/WX    TMP DP  RH WIND       PRES   REMARKS
SUPERIOR ARPT  CLOUDY    22  14  71 N10G16    29.90R WCI  12
ASHLAND        CLOUDY    20  18  92 N18       29.85R WCI   5
HAYWARD        CLOUDY    22  18  85 N17       29.79R WCI   8
SIREN          CLOUDY    25  19  79 N14G20    29.83R WCI  13
CUMBERLAND     CLOUDY    23  21  93 N16G25    29.75R WCI  10
RICE LAKE      CLOUDY    25  22  89 N13G22    29.77R WCI  13
CHETEK         LGT SNOW  24  23  94 N5        29.76R VSB 1   WCI  19
LADYSMITH      CLOUDY    26  22  84 N9G17     29.73R WCI  17
EAU CLAIRE     LGT SNOW  26  24  92 N10G20    29.70R VSB 3/4 WCI  16
MENOMONIE      LGT SNOW  26  24  92 NW17G24   29.72S WCI  14
NEW RICHMOND     N/A     26  23  89 N15G23    29.78R WCI  14
OSCEOLA        CLOUDY    27  22  82 N14G22    29.83R WCI  15
$$

WIZ003>005-009-010-017-018-230600-
NORTH CENTRAL WISCONSIN

CITY           SKY/WX    TMP DP  RH WIND       PRES   REMARKS
MANITOWISH WTR CLOUDY    21  20  95 N15G21    29.68R WCI   8
ARBOR VITAE    LGT SNOW  23  21  91 N5        29.67R VSB 1   WCI  17
WOODRUFF       LGT SNOW  23  21  91 N5        29.67R VSB 1   WCI  17
RHINELANDER    LGT SNOW  23  21  92 N8G16     29.64R FOG     WCI  14
EAGLE RIVER    CLOUDY    22  21  95 N8        29.65R WCI  13
LAND O LAKES   CLOUDY    22  20  91 N7        29.67R WCI  14
PHILLIPS       LGT SNOW  22  20  91 N13       29.69R WCI  10
TOMAHAWK       CLOUDY    23  20  88 N8        29.65S FOG     WCI  14
MEDFORD        LGT SNOW  24  21  87 N16G22    29.61S WCI  11
MERRILL        MIX PCPN  26  23  87 N12       29.62S WCI  16
$$

WIZ029-030-035-036-043>047-230600-
CENTRAL WISCONSIN

CITY           SKY/WX    TMP DP  RH WIND       PRES   REMARKS
WAUSAU         CLOUDY    27  23  85 N9G18     29.58R WCI  18
MOSINEE        NOT AVBL
MARSHFIELD     FLURRIES  28  24  85 N14G23    29.59R WCI  17
STEVENS POINT  CLOUDY    28  26  94 N10       29.57S WCI  18
WAUPACA        CLOUDY    32  28  84 N12G17    29.55F WCI  23
WAUTOMA        CLOUDY    30  27  88 N9G17     29.57R WCI  22
WISC RAPIDS    NOT AVBL
CAMP DOUGLAS   MIX PCPN  31  30  97 N10       29.59R WCI  22
$$

WIZ011>013-019>022-031-037>040-048>050-230600-
NORTHEAST WISCONSIN

CITY           SKY/WX    TMP DP  RH WIND       PRES   REMARKS
ANTIGO         CLOUDY    26  23  88 N17G23    29.58S WCI  13
SHAWANO        CLOUDY    31  28  86 N14G21    29.57R WCI  21
OCONTO         CLOUDY    29  27  92 NE8G16    29.56S WCI  21
STURGEON BAY   MIX PCPN  28  27  96 N21       29.53F FOG     WCI  15
GREEN BAY      CLOUDY    30  28  92 N20       29.54R WCI  17
MANITOWOC      CLOUDY    32  31  96 N14G23    29.49S WCI  22
APPLETON       CLOUDY    28  28 100 NE20G25   29.51R WCI  15
CLINTONVILLE   CLOUDY    30  27  86 NE18      29.56S WCI  18
OSHKOSH        CLOUDY    30  29  96 N15G25    29.51S WCI  19
$$

WIZ032>034-041-042-053>061-230600-
SOUTHWEST WISCONSIN

CITY           SKY/WX    TMP DP  RH WIND       PRES   REMARKS
LA CROSSE      CLOUDY    33  30  88 N14       29.63R WCI  23
SPARTA         CLOUDY    31  30  94 N12G17    29.61R WCI  22
VIROQUA        CLOUDY    32  32 100 NE13      29.57R WCI  22
BOSCOBEL       CLOUDY    34  32  92 N9        29.57R WCI  27
PRAIRIE DU CHI CLOUDY    34  32  93 N5        29.56R FOG     WCI  29
PLATTEVILLE    CLOUDY    33  33 100 N14       29.51S WCI  23
$$

WIZ056-057-062-063-064-067-068-230600-
SOUTH CENTRAL WISCONSIN

CITY           SKY/WX    TMP DP  RH WIND       PRES   REMARKS
REEDSBURG      CLOUDY    31  31 100 N6        29.57R WCI  25
BARABOO/DELLS  CLOUDY    31  29  95 N6        29.56R WCI  25
LONE ROCK      CLOUDY    33  31  92 N15G21    29.55S WCI  23
MINERAL POINT  CLOUDY    34  34 100 N12       29.50S FOG     WCI  25
MADISON        LGT SNOW  31  30  96 N10       29.52F FOG     WCI  22
MIDDLETON      CLOUDY    33  33 100 N12       29.52S WCI  24
WATERTOWN      LGT SNOW  32  32 100 NW10      29.49R WCI  24
MONROE         CLOUDY    32  32 100 N13       29.48R FOG     WCI  22
JANESVILLE     LGT RAIN  34  34 100 N6        29.48F WCI  29
$$

WIZ051-052-058>065-066-070>072-230600-
SOUTHEAST WISCONSIN

CITY           SKY/WX    TMP DP  RH WIND       PRES   REMARKS
MILWAUKEE      LGT RAIN  37  35  92 CALM      29.48S FOG
WAUKESHA       RAIN      32  32 100 SW5       29.48R WCI  27
MILWAUKEE/TIMM DRIZZLE   34  32  93 S7        29.48R WCI  28
RACINE         LGT RAIN  36  35  96 N12       29.48S WCI  28
BURLINGTON     MIX PCPN  33  32  96 CALM      29.48S
KENOSHA        CLOUDY    38  34  85 NW12G23   29.44F WCI  30
FOND DU LAC    CLOUDY    31  28  89 N21       29.52R WCI  18
SHEBOYGAN      RAIN      33  33 100 N13       29.47R FOG     WCI  24
WEST BEND      LGT RAIN  32  32 100 N6        29.44F WCI  26
JUNEAU         LGT SNOW  30  30  99 NW13      29.51S WCI  20
$$

LSZ147-162-230600-
LAKE SUPERIOR

STATION/POSITION TIME  TEMP    WIND        PRES    WAVE
                       AIR SEA DIR/SP/G            HT/PER
                 (UTC) (F)     (DEG/KT/KT) (MB)    (FT/S)
DEVILS ISLAND    0400   22      30/ 22/ 25 1012.3F
SAXON HARBOR     0417   25      20/ 22/ 26 1009.5R
$$

LMZ867-665-643>646-230600-
LAKE MICHIGAN

STATION/POSITION TIME  TEMP    WIND        PRES    WAVE
                       AIR SEA DIR/SP/G            HT/PER
                 (UTC) (F)     (DEG/KT/KT) (MB)    (FT/S)
NORTHPORT PIER   0440   28      20/  7/ 11 1001.7R
KEWAUNEE LAKESHO 0430   32     360/ 10/ 16  998.9F
SHEBOYGAN LAKESH 0400   33      10/ 27/ 31  997.9F
PORT WASHINGTON  0430   34     350/  5/ 13  998.3F
MILWAUKEE LAKESH 0430   34     350/  9/ 12   N/A
KENOSHA   LAKESH 0400   40     280/ 13/ 20  998.3
$$

TC  - TEMPERATURE IN CELSIUS
VSB - VISIBILITY IN STATUTE MILES
WCI - WIND CHILL INDEX
HX  - HEAT INDEX





USA.gov is the U.S. government's official web portal to all federal, state and local government web resources and services.